Theta_e
290 289 289 289 289 290 290 289 289 287 286 284 284 282 281 281 281 281 280 280 279 278 277 277 277 277 277 278 277 277 277 278 278 278 277 278 278 279
288 288 289 289 289 290 289 289 288 287 285 284 282 281 281 281 280 280 279 279 278 277 275 275 275 275 276 275 275 275 275 276 276 275 276 277 277 278
287 288 289 289 289 288 288 288 287 285 284 283 282 281 281 280 280 279 278 277 277 275 274 274 273 274 273 273 273 273 273 273 273 274 275 276 276 276
288 288 288 288 288 288 286 285 285 284 282 281 282 281 281 280 279 278 277 276 275 274 273 273 272 272 271 271 272 272 271 271 272 273 274 274 275 275
288 287 287 287 286 285 285 284 284 282 282 281 281 280 279 278 277 276 275 275 274 273 272 272 271 271 271 270 270 270 270 270 272 272 273 273 273 274
287 287 286 285 285 284 284 284 283 283 282 280 279 278 277 276 275 274 274 273 273 272 272 272 271 271 270 270 270 270 270 270 271 272 272 272 272 273
287 286 285 285 285 284 285 284 282 281 280 279 278 276 275 275 274 273 272 271 272 272 271 271 272 272 270 270 270 270 270 270 271 271 271 272 272 272
285 285 284 285 285 284 283 281 280 278 277 276 275 275 274 273 272 271 270 270 270 271 270 273 271 271 270 270 270 270 270 270 270 270 271 271 271 271
285 285 286 285 284 283 281 280 278 277 276 275 275 273 272 271 270 270 270 269 269 269 269 272 272 271 271 271 270 270 270 269 269 270 270 270 270 270
286 286 284 283 282 281 279 278 277 276 275 274 273 272 272 271 270 269 269 268 268 269 269 271 272 271 271 270 270 270 269 268 268 268 268 269 269 269
285 284 283 282 280 277 277 277 276 275 274 273 273 272 270 270 269 268 268 268 268 269 269 269 269 270 270 269 268 269 268 268 268 268 267 267 267 267
283 282 280 279 278 277 276 275 274 273 273 272 271 270 270 269 269 268 267 267 266 268 268 266 267 266 267 267 266 268 268 268 268 268 267 266 266 265
281 280 278 277 276 275 274 274 273 273 272 271 270 270 270 269 269 268 267 266 266 266 267 265 265 265 263 264 266 267 267 268 267 268 267 267 265 265
279 278 277 276 275 274 274 273 272 272 271 271 271 271 270 269 269 268 267 267 266 266 266 265 264 264 263 263 263 267 267 267 267 267 266 266 266 265
278 277 276 275 275 275 274 273 272 272 271 271 271 270 269 268 268 267 267 267 266 266 266 265 264 264 263 263 262 265 265 266 267 266 266 266 266 265
277 276 276 276 275 275 274 273 273 272 270 270 269 269 268 268 267 267 266 266 266 266 266 265 265 264 263 262 261 265 265 262 265 266 265 265 266 265
277 277 276 276 275 274 274 273 272 271 270 269 269 269 268 267 267 266 266 265 265 265 265 265 265 264 264 263 262 265 264 263 264 264 263 263 265 266
277 277 276 275 274 273 272 272 272 271 270 270 269 269 268 267 267 266 266 265 265 265 264 265 265 264 264 263 261 263 263 262 263 264 265 263 263 265
276 275 275 274 273 272 271 271 270 270 269 269 268 268 267 267 266 266 266 265 265 265 265 265 264 263 262 262 262 260 261 264 263 264 263 263 262 264
275 274 273 273 272 271 271 271 270 269 269 268 268 267 267 266 266 265 265 265 265 264 264 264 264 263 261 261 261 264 264 263 262 261 263 263 265 264
273 273 272 272 272 271 271 271 270 269 268 268 268 267 267 266 266 265 265 265 264 264 264 264 263 263 263 262 262 264 265 266 265 261 263 262 263 264
273 273 273 272 272 271 271 270 270 269 268 268 268 268 267 267 266 266 265 264 264 264 263 263 263 263 263 262 262 263 265 266 266 266 264 262 264 265
273 273 273 272 271 271 270 270 269 269 268 268 268 267 267 267 266 266 265 265 264 264 263 263 263 262 263 263 262 263 264 266 266 266 267 265 264 265
Wind_Speed
12 10 9 8 7 6 4 2 2 5 9 10 11 13 20 20 21 21 24 28 27 26 27 26 21 22 22 21 23 24 25 26 27 27 28 30 30 32
13 11 8 6 4 3 1 2 3 2 4 8 11 17 19 19 20 24 27 28 27 28 27 23 21 20 18 21 23 23 24 25 26 27 29 32 34 34
11 8 5 4 2 3 5 7 8 8 8 11 13 17 19 20 24 27 28 30 31 29 27 24 19 17 20 22 22 22 23 24 24 28 31 33 34 36
8 6 4 3 2 5 7 9 11 12 13 14 17 19 21 24 27 29 30 30 30 28 24 18 19 20 22 22 21 22 24 23 25 29 31 34 35 37
5 3 1 1 4 7 9 11 12 13 14 17 18 20 24 27 30 30 32 31 29 27 24 19 23 23 23 23 24 25 27 22 27 31 34 36 37 39
4 1 1 4 8 10 12 13 15 17 18 18 20 23 27 29 32 35 37 34 32 28 24 23 29 27 26 24 25 27 26 24 31 33 36 38 41 43
1 1 5 8 11 14 15 17 19 19 19 21 24 27 30 32 33 35 37 37 37 29 29 35 33 31 29 27 29 30 27 29 31 34 37 40 43 46
2 4 8 11 12 15 16 16 18 18 20 22 25 28 30 30 31 33 35 38 40 32 39 37 35 35 30 32 31 31 30 29 31 35 40 43 44 45
5 8 11 12 15 15 16 17 17 16 18 22 26 25 24 26 31 33 35 36 36 37 37 41 39 38 36 37 34 32 32 30 33 37 39 42 43 44
7 9 10 12 15 18 18 19 22 22 22 23 22 24 26 29 30 32 33 35 36 34 29 38 40 42 43 44 39 32 35 36 37 37 38 41 43 44
7 9 13 14 14 12 20 24 24 24 25 22 23 26 29 30 29 31 30 31 37 38 33 31 41 46 49 50 42 40 43 42 41 39 38 41 41 40
9 11 13 16 17 15 19 23 26 26 28 29 30 30 30 28 27 26 27 29 30 38 29 36 42 39 51 53 41 50 50 46 44 44 42 41 39 39
10 11 12 16 16 17 16 21 20 26 29 32 34 33 32 30 28 26 25 26 29 32 29 30 41 41 40 48 57 54 52 51 47 47 44 45 40 35
10 13 15 16 18 19 21 23 24 29 31 33 33 33 32 31 30 29 27 26 27 30 29 26 37 37 41 48 52 56 55 52 47 46 48 49 49 45
13 14 15 17 19 21 22 24 27 29 31 32 33 33 32 32 31 31 30 29 30 27 25 25 30 34 36 42 48 54 56 55 42 47 49 50 54 53
11 13 16 20 22 24 24 24 27 28 29 30 32 32 32 33 33 32 34 33 36 35 29 27 30 33 38 40 40 52 51 47 48 47 51 53 55 53
15 18 19 21 21 23 23 24 24 25 28 29 32 34 35 35 35 33 34 35 37 40 39 35 34 36 38 40 42 43 42 46 46 52 51 56 56 53
18 20 21 23 26 27 28 29 28 29 29 31 32 33 35 36 37 36 36 37 39 40 40 38 40 43 45 44 32 35 43 43 50 49 50 55 58 56
19 21 23 25 27 29 30 32 34 33 32 32 33 34 36 37 37 38 38 38 40 40 39 38 38 39 43 52 47 27 33 50 47 51 51 52 55 60
20 22 24 26 29 31 32 34 36 37 36 35 36 36 37 38 39 39 38 40 41 42 43 40 38 37 38 44 51 57 44 42 43 48 53 54 55 51
21 24 26 29 31 33 34 36 37 38 37 36 36 36 37 38 39 39 40 40 41 42 45 43 40 37 38 41 47 54 48 40 40 40 48 50 52 60
25 28 29 30 32 34 36 37 38 38 37 35 34 34 34 35 37 38 39 40 41 41 44 44 40 39 39 40 47 50 51 49 45 47 42 33 40 49
27 29 31 32 33 36 37 37 37 37 35 34 33 33 34 36 36 36 36 36 37 40 40 43 41 39 39 40 43 47 50 50 54 60 60 45 37 40
Wind_Direction
141 155 159 149 142 142 136 157 217 229 242 250 258 278 299 307 314 318 319 320 322 321 319 322 327 325 326 325 324 325 324 323 322 321 319 320 318 316
151 153 149 127 112 87 56 344 328 293 258 257 272 293 306 312 311 314 316 317 320 321 320 323 325 325 328 326 326 325 323 323 320 320 322 319 317 315
143 127 123 113 82 22 343 331 334 332 318 308 305 308 311 310 313 315 318 319 319 320 318 323 322 328 326 326 325 323 321 321 319 322 320 317 315 312
130 135 122 81 5 333 337 341 335 331 326 319 317 316 315 314 316 317 317 316 318 320 324 321 320 325 331 325 324 323 321 319 322 320 318 314 312 310
134 118 91 349 341 342 340 338 333 329 326 322 319 318 316 317 316 316 317 320 323 325 323 320 327 333 332 330 332 328 326 320 320 318 317 313 311 310
133 135 317 350 346 339 338 332 330 330 327 321 319 320 320 321 321 321 322 323 325 330 326 326 329 333 333 331 332 330 329 320 320 318 316 314 311 309
132 340 348 344 341 332 335 334 335 330 325 321 322 324 325 324 323 323 323 325 326 332 329 326 325 329 332 332 332 334 326 316 318 316 315 313 310 307
20 352 348 340 332 334 336 332 329 329 324 322 323 322 320 322 323 321 321 322 326 328 322 320 324 325 326 324 328 328 325 318 315 315 314 312 309 307
358 349 336 335 333 332 328 323 323 326 322 318 316 318 318 316 312 315 315 314 313 316 320 318 320 318 319 318 321 323 323 316 314 313 312 312 310 308
343 336 330 329 326 326 321 330 329 326 322 321 313 310 310 311 309 310 308 309 308 309 316 312 314 312 314 313 317 324 326 320 315 313 314 314 311 308
330 328 330 329 324 326 323 326 323 321 318 316 313 313 312 313 313 309 310 311 315 315 323 313 313 314 315 316 320 325 324 322 322 317 315 318 316 312
331 329 325 323 327 331 323 320 323 322 320 316 315 317 318 318 316 313 314 313 312 312 315 314 310 319 318 316 310 318 321 322 323 320 322 323 318 312
327 328 326 328 331 328 316 321 329 311 314 315 319 321 320 319 318 317 315 310 306 300 313 309 305 308 302 305 309 316 318 320 322 320 326 331 323 314
339 338 335 330 325 325 324 322 316 321 318 318 318 318 318 318 317 318 316 310 304 303 311 305 296 303 305 305 306 315 315 317 320 320 325 329 328 325
344 339 335 330 330 331 331 329 325 321 319 318 319 319 318 317 317 317 314 312 307 309 310 307 302 305 302 302 307 310 313 318 320 322 324 325 329 324
342 339 340 339 336 332 329 327 323 320 319 318 318 318 317 318 318 317 314 316 313 315 317 317 313 311 309 308 307 308 312 304 320 324 325 324 325 322
348 343 338 332 327 325 324 323 323 322 321 322 322 320 319 317 316 316 315 315 312 316 319 323 319 315 312 310 306 310 311 311 322 325 319 315 319 323
338 335 333 330 327 326 327 326 326 324 322 320 317 315 315 315 315 315 314 314 313 317 318 323 321 320 319 316 311 312 313 308 320 321 321 317 314 319
331 331 329 327 327 326 325 323 323 322 319 317 314 312 311 310 311 311 312 312 312 314 315 318 321 323 321 315 318 312 306 319 319 323 322 313 303 312
326 327 326 326 326 324 323 321 320 319 319 317 314 312 310 308 307 307 308 309 310 311 312 317 321 323 318 312 310 314 324 319 318 313 318 319 318 309
324 327 326 325 324 323 322 321 319 319 320 319 317 316 314 310 308 307 307 307 308 310 311 315 321 319 316 314 308 316 325 330 326 313 316 309 307 308
326 325 327 325 324 323 322 320 320 320 321 321 319 318 319 318 318 316 312 309 309 310 310 314 319 319 319 316 314 319 324 330 335 334 327 305 305 307
324 324 325 326 326 324 321 320 320 320 320 319 318 319 319 321 323 323 322 319 317 315 316 317 318 319 319 318 319 322 325 332 338 338 339 337 320 315